Niagara Falls, NY

1:58 PM EST on November 18, 2019 (GMT -0500)
Niagara Falls International

Weather History for KIAG - September, 2019

Change the Weather History Date:

Tuesday, September 24, 2019

  Actual Average Record
Temperature  
Mean Temperature 62 °F -  
Max Temperature 69 °F 66 °F 93 °F (2017)
Min Temperature 55 °F 47 °F 34 °F (1992)
Degree Days  
Heating Degree Days 3    
Growing Degree Days 12 (Base 50)    
Moisture  
Dew Point 53 °F    
Average Humidity 75    
Maximum Humidity 90    
Minimum Humidity 45    
Precipitation  
Precipitation 0.00 in - - ()
Sea Level Pressure  
Sea Level Pressure 29.87 in    
Wind  
Wind Speed 12 mph (WNW)    
Max Wind Speed 16 mph    
Max Gust Speed 23 mph    
Visibility 10 miles    
Events      
Averages and records for this station are not official NWS values.
T = Trace of Precipitation, MM = Missing Value Source: NWS Daily Summary

Daily Weather History Graph

Daily Weather History Graph

Search for Another Location

Airport or City:

Astronomy

Sep. 24, 2019 Rise Set
Actual Time 7:05 AM EDT 7:09 PM EDT
Civil Twilight 6:36 AM EDT 7:38 PM EDT
Nautical Twilight 6:03 AM EDT 8:11 PM EDT
Astronomical Twilight 5:29 AM EDT 8:45 PM EDT
Moon 1:38 AM EDT (9/24) 5:03 PM EDT (9/24)
Length of Visible Light 13h 01m
Length of Day
12h 04m
Waning Crescent, 23% of the Moon is Illuminated
Sep 24
Waning Crescent
Sep 28
New
Oct 5
First Quarter
Oct 13
Full
Oct 21
Last Quarter

Hourly Weather History & Observations

Time (EDT) Temp. Dew Point Humidity Pressure Visibility Wind Dir Wind Speed Gust Speed Precip Events Conditions
12:36 AM 62.1 °F 54.0 °F 75% 29.82 in 10.0 mi West 15.0 mph - N/A   Overcast
12:53 AM 61.0 °F 54.0 °F 78% 29.81 in 10.0 mi WNW 13.8 mph - N/A   Overcast
1:06 AM 60.1 °F 54.0 °F 80% 29.82 in 10.0 mi West 11.5 mph 23.0 mph N/A   Mostly Cloudy
1:53 AM 59.0 °F 54.0 °F 83% 29.83 in 10.0 mi West 10.4 mph - N/A   Mostly Cloudy
2:53 AM 57.9 °F 54.0 °F 87% 29.82 in 10.0 mi West 13.8 mph - N/A   Partly Cloudy
3:45 AM 57.9 °F 54.0 °F 87% 29.82 in 10.0 mi West 11.5 mph - N/A   Mostly Cloudy
3:53 AM 57.9 °F 55.0 °F 90% 29.82 in 10.0 mi West 10.4 mph - N/A   Mostly Cloudy
4:53 AM 59.0 °F 54.0 °F 83% 29.84 in 10.0 mi WNW 11.5 mph - N/A   Mostly Cloudy
5:20 AM 60.1 °F 54.0 °F 80% 29.85 in 10.0 mi NW 13.8 mph - N/A   Mostly Cloudy
5:37 AM 59.0 °F 52.0 °F 78% 29.85 in 10.0 mi NNW 15.0 mph - N/A   Mostly Cloudy
5:53 AM 59.0 °F 52.0 °F 78% 29.86 in 10.0 mi NW 16.1 mph - N/A   Mostly Cloudy
6:53 AM 57.9 °F 52.0 °F 81% 29.88 in 10.0 mi NNW 8.1 mph - N/A   Mostly Cloudy
7:40 AM 57.9 °F 52.0 °F 81% 29.90 in 10.0 mi WNW 6.9 mph - N/A   Scattered Clouds
7:53 AM 57.0 °F 52.0 °F 83% 29.91 in 10.0 mi WNW 6.9 mph - N/A   Partly Cloudy
8:53 AM 60.1 °F 52.0 °F 75% 29.93 in 10.0 mi NW 11.5 mph - N/A   Scattered Clouds
9:53 AM 62.1 °F 51.1 °F 67% 29.93 in 10.0 mi NNW 10.4 mph - N/A   Scattered Clouds
10:53 AM 63.0 °F 52.0 °F 67% 29.94 in 10.0 mi NW 9.2 mph - N/A   Partly Cloudy
11:53 AM 64.0 °F 51.1 °F 63% 29.92 in 10.0 mi WNW 9.2 mph - N/A   Scattered Clouds
12:53 PM 64.9 °F 50.0 °F 58% 29.92 in 10.0 mi WNW 12.7 mph - N/A   Mostly Cloudy
1:53 PM 66.9 °F 50.0 °F 54% 29.89 in 10.0 mi West 10.4 mph - N/A   Scattered Clouds
2:53 PM 68.0 °F 46.9 °F 47% 29.88 in 10.0 mi NW 12.7 mph - N/A   Partly Cloudy
3:53 PM 69.1 °F 46.9 °F 45% 29.87 in 10.0 mi NW 15.0 mph 21.9 mph N/A   Partly Cloudy
4:53 PM 66.0 °F 46.9 °F 50% 29.87 in 10.0 mi WNW 11.5 mph - N/A   Scattered Clouds
5:53 PM 66.0 °F 55.9 °F 70% 29.88 in 10.0 mi SW 10.4 mph - N/A   Mostly Cloudy
6:53 PM 63.0 °F 55.9 °F 78% 29.88 in 10.0 mi WSW 9.2 mph - N/A   Partly Cloudy
7:53 PM 62.1 °F 55.9 °F 80% 29.89 in 10.0 mi SW 10.4 mph - N/A   Partly Cloudy
8:53 PM 59.0 °F 55.0 °F 87% 29.89 in 10.0 mi WSW 8.1 mph - N/A   Clear
9:53 PM 57.9 °F 54.0 °F 87% 29.88 in 10.0 mi West 6.9 mph - N/A   Clear
10:53 PM 55.9 °F 53.1 °F 90% 29.88 in 10.0 mi West 4.6 mph - N/A   Clear
11:53 PM 55.9 °F 53.1 °F 90% 29.86 in 10.0 mi Calm Calm - N/A   Clear